Location: Unspecified
(0.0000°N, 0.0000°E)
Time: 15:18:15
(UTC+00:00)

Vanguard 2 - Visible Passes

Search period start: 15 June 2025 00:00
Search period end: 25 June 2025 00:00
Orbit: 552 x 2900 km, 32.9° (Epoch: 14 June)

Date Brightness Start Highest point End Pass type
(mag) Time Alt. Az. Time Alt. Az. Time Alt. Az.
15 Jun 11.4 04:12:43 12° SSW 04:22:49 21° SSE 04:34:23 10° ESE visible
15 Jun 8.0 19:39:21 10° NW 19:43:32 44° NE 19:44:06 42° ENE visible
16 Jun 11.6 02:23:23 12° SSE 02:23:23 12° SSE 02:25:43 10° SSE visible
16 Jun 11.4 04:24:22 11° SSW 04:36:22 25° SSE 04:49:08 10° ESE visible
16 Jun 7.3 19:51:32 10° NW 19:55:53 75° NE 19:55:54 75° NE visible
17 Jun 11.5 02:35:03 13° SSE 02:35:03 13° SSE 02:40:43 10° SE visible
17 Jun 11.3 04:36:01 10° SSW 04:49:42 30° SSE 05:03:30 10° E visible
17 Jun 7.8 20:04:00 10° WNW 20:07:45 60° WSW 20:07:45 60° WSW visible
18 Jun 11.4 02:46:43 15° SSE 02:47:28 15° SSE 02:56:08 10° SE visible
18 Jun 11.2 04:48:01 10° SSW 05:02:50 36° SSE 05:17:31 10° E visible
18 Jun 8.7 20:16:44 10° W 20:19:35 33° WSW 20:19:35 33° WSW visible
19 Jun 11.3 02:58:24 18° S 03:01:05 18° SSE 03:11:32 10° ESE visible
19 Jun 11.0 05:00:05 10° SW 05:15:47 44° SSE 05:31:09 10° E visible
19 Jun 7.9 18:21:57 10° NNW 18:25:35 35° NE 18:29:51 10° ESE visible
19 Jun 9.5 20:29:49 10° W 20:31:27 18° WSW 20:31:27 18° WSW visible
20 Jun 11.1 03:10:07 20° S 03:14:30 22° SSE 03:26:37 10° ESE visible
20 Jun 10.8 05:12:12 10° SW 05:28:34 53° SE 05:44:26 10° ENE visible
20 Jun 7.1 18:34:04 10° NW 18:37:58 68° NE 18:42:19 12° ESE visible
21 Jun 11.0 03:21:51 22° S 03:27:40 27° SSE 03:41:18 10° E visible
21 Jun 10.7 05:24:23 10° SW 05:41:14 64° SE 05:57:27 10° ENE visible
21 Jun 7.2 18:46:30 10° WNW 18:50:24 64° SW 18:54:12 15° SE visible
22 Jun 10.9 03:33:36 24° S 03:40:39 33° SSE 03:55:33 10° E visible
22 Jun 10.6 05:36:41 10° SW 05:53:49 77° SE 06:10:14 10° ENE visible
22 Jun 8.1 18:59:16 10° W 19:02:54 34° SSW 19:06:04 16° SSE visible
23 Jun 11.6 01:44:24 12° SE 01:44:24 12° SE 01:47:04 10° SE visible
23 Jun 10.8 03:45:23 26° SSW 03:53:26 41° SE 04:09:22 10° E visible
23 Jun 8.9 19:12:28 10° WSW 19:15:30 20° SSW 19:17:57 14° S visible
24 Jun 11.4 01:56:11 17° SE 01:56:11 17° SE 02:02:42 10° ESE visible
24 Jun 10.6 03:57:10 28° SSW 04:06:05 50° SE 04:22:49 10° ENE visible
24 Jun 9.5 19:26:34 10° SW 19:28:12 12° SSW 19:29:48 10° S visible
